• In United Kingdom
  • List of Countries
  • For 7 days
  • Water Temperature
  • Satellite Maps
  • Weather Map
  • Weather Widgets
  • user-avatar
    Login

    Hourly Weather Mbandaka

    Today, 19 January, Friday

    Time Temperature Precipitation Wind Pressure Humidity
    00:00 +24°C° 0 mm 0 mps 730 mmHg 46%
    01:00 +26°C° 0 mm 1 mps 730 mmHg 42%
    02:00 +25°C° 0 mm 1 mps 730 mmHg 45%
    03:00 +25°C° 0 mm 1 mps 730 mmHg 48%
    04:00 +24°C° 0 mm 1 mps 730 mmHg 51%
    05:00 +25°C° 0 mm 1 mps 730 mmHg 56%
    06:00 +25°C° 0 mm 1 mps 731 mmHg 61%
    07:00 +26°C° 0 mm 1 mps 731 mmHg 67%
    08:00 +28°C° 0 mm 1 mps 731 mmHg 59%
    09:00 +31°C° 0 mm 1 mps 731 mmHg 51%
    10:00 +35°C° 0 mm 2 mps 731 mmHg 43%
    11:00 +36°C° 0 mm 1 mps 731 mmHg 36%
    12:00 +39°C° 0 mm 1 mps 730 mmHg 29%
    13:00 +41°C° 0 mm 1 mps 730 mmHg 22%
    14:00 +40°C° 0 mm 1 mps 729 mmHg 23%
    15:00 +39°C° 0 mm 1 mps 728 mmHg 23%
    16:00 +37°C° 0 mm 1 mps 728 mmHg 24%
    17:00 +35°C° 0 mm 1 mps 728 mmHg 29%
    18:00 +33°C° 0 mm 1 mps 728 mmHg 34%
    19:00 +30°C° 0 mm 1 mps 728 mmHg 38%
    20:00 +30°C° 0 mm 1 mps 729 mmHg 44%
    21:00 +29°C° 0 mm 1 mps 729 mmHg 49%
    22:00 +28°C° 0 mm 1 mps 730 mmHg 54%
    23:00 +27°C° 0 mm 1 mps 729 mmHg 61%

    Tomorrow, 20 January, Saturday

    Time Temperature Precipitation Wind Pressure Humidity
    00:00 +26°C° 0 mm 1 mps 729 mmHg 68%
    01:00 +25°C° 0 mm 1 mps 729 mmHg 75%
    02:00 +25°C° 0 mm 1 mps 729 mmHg 76%
    03:00 +25°C° 0 mm 1 mps 729 mmHg 78%
    04:00 +25°C° 0 mm 1 mps 729 mmHg 80%
    05:00 +26°C° 0 mm 1 mps 730 mmHg 78%
    06:00 +26°C° 0 mm 1 mps 730 mmHg 76%
    07:00 +27°C° 0 mm 1 mps 730 mmHg 75%
    08:00 +29°C° 0 mm 1 mps 731 mmHg 64%
    09:00 +32°C° 0 mm 2 mps 731 mmHg 54%
    10:00 +36°C° 0 mm 2 mps 731 mmHg 43%
    11:00 +37°C° 0 mm 2 mps 730 mmHg 39%
    12:00 +38°C° 0 mm 2 mps 729 mmHg 34%
    13:00 +40°C° 0 mm 1 mps 729 mmHg 29%
    14:00 +39°C° 0 mm 1 mps 728 mmHg 31%
    15:00 +37°C° 0 mm 1 mps 728 mmHg 32%
    16:00 +36°C° 0 mm 1 mps 727 mmHg 34%
    17:00 +34°C° 0 mm 1 mps 727 mmHg 39%
    18:00 +32°C° 0 mm 1 mps 728 mmHg 45%
    19:00 +30°C° 0 mm 1 mps 728 mmHg 50%
    20:00 +30°C° 0 mm 1 mps 729 mmHg 53%
    21:00 +29°C° 0 mm 1 mps 729 mmHg 55%
    22:00 +28°C° 0 mm 1 mps 730 mmHg 58%
    23:00 +28°C° 0 mm 1 mps 729 mmHg 61%

    Day after tomorrow, 21 January, Sunday

    Time Temperature Precipitation Wind Pressure Humidity
    00:00 +27°C° 0 mm 1 mps 729 mmHg 63%
    01:00 +27°C° 0 mm 1 mps 729 mmHg 66%
    02:00 +26°C° 0 mm 1 mps 729 mmHg 67%
    03:00 +26°C° 0 mm 1 mps 729 mmHg 69%
    04:00 +26°C° 0 mm 1 mps 729 mmHg 71%
    05:00 +26°C° 0 mm 2 mps 730 mmHg 71%
    06:00 +26°C° 0 mm 2 mps 730 mmHg 72%
    07:00 +27°C° 0 mm 2 mps 731 mmHg 73%
    08:00 +29°C° 0 mm 2 mps 732 mmHg 65%
    09:00 +31°C° 0 mm 2 mps 732 mmHg 57%
    10:00 +34°C° 0 mm 2 mps 732 mmHg 50%
    11:00 +36°C° 0 mm 2 mps 731 mmHg 45%
    12:00 +37°C° 0 mm 2 mps 730 mmHg 40%
    13:00 +39°C° 0 mm 1 mps 729 mmHg 35%
    14:00 +37°C° 0 mm 1 mps 729 mmHg 37%
    15:00 +36°C° 0 mm 1 mps 728 mmHg 38%
    16:00 +35°C° 0 mm 1 mps 727 mmHg 40%
    17:00 +34°C° 0 mm 1 mps 728 mmHg 44%
    18:00 +32°C° 0 mm 1 mps 728 mmHg 49%
    19:00 +28°C° 0 mm 0 mps 729 mmHg 53%
    20:00 +29°C° 0.1 mm 1 mps 729 mmHg 58%
    21:00 +29°C° 0.1 mm 1 mps 730 mmHg 62%
    22:00 +28°C° 0.1 mm 1 mps 730 mmHg 66%
    23:00 +27°C° 0.8 mm 1 mps 730 mmHg 73%

    22 January, Monday

    Time Temperature Precipitation Wind Pressure Humidity
    00:00 +26°C° 0.8 mm 1 mps 730 mmHg 80%
    01:00 +25°C° 0.8 mm 1 mps 729 mmHg 87%
    02:00 +24°C° 0.2 mm 1 mps 729 mmHg 89%
    03:00 +24°C° 0.2 mm 1 mps 729 mmHg 90%
    04:00 +24°C° 0.2 mm 1 mps 729 mmHg 92%
    05:00 +24°C° 0.5 mm 1 mps 730 mmHg 91%
    06:00 +24°C° 0.5 mm 1 mps 730 mmHg 91%
    07:00 +25°C° 0.5 mm 2 mps 731 mmHg 90%
    08:00 +27°C° 0 mm 2 mps 731 mmHg 80%
    09:00 +29°C° 0 mm 2 mps 732 mmHg 70%
    10:00 +31°C° 0 mm 2 mps 732 mmHg 59%
    11:00 +34°C° 0 mm 2 mps 731 mmHg 52%
    12:00 +36°C° 0 mm 2 mps 730 mmHg 44%
    13:00 +38°C° 0 mm 2 mps 729 mmHg 37%
    14:00 +37°C° 0 mm 2 mps 728 mmHg 39%
    15:00 +35°C° 0 mm 1 mps 728 mmHg 40%
    16:00 +34°C° 0 mm 1 mps 727 mmHg 42%
    17:00 +33°C° 0 mm 1 mps 728 mmHg 47%
    18:00 +31°C° 0 mm 1 mps 728 mmHg 52%
    19:00 +29°C° 0 mm 1 mps 729 mmHg 58%
    20:00 +29°C° 0.4 mm 1 mps 729 mmHg 62%
    21:00 +28°C° 0.4 mm 1 mps 730 mmHg 67%
    22:00 +27°C° 0.4 mm 1 mps 730 mmHg 71%
    23:00 +27°C° 0.3 mm 1 mps 730 mmHg 76%

    23 January, Tuesday

    Time Temperature Precipitation Wind Pressure Humidity
    00:00 +26°C° 0.3 mm 1 mps 729 mmHg 81%
    01:00 +26°C° 0.3 mm 1 mps 729 mmHg 86%
    02:00 +25°C° 0.5 mm 1 mps 729 mmHg 87%
    03:00 +25°C° 0.5 mm 1 mps 729 mmHg 88%
    04:00 +25°C° 0.5 mm 1 mps 729 mmHg 89%
    05:00 +25°C° 0 mm 1 mps 730 mmHg 89%
    06:00 +25°C° 0 mm 1 mps 730 mmHg 88%
    07:00 +25°C° 0 mm 1 mps 731 mmHg 87%
    08:00 +26°C° 0 mm 1 mps 731 mmHg 80%
    09:00 +28°C° 0 mm 1 mps 731 mmHg 72%
    10:00 +30°C° 0 mm 2 mps 731 mmHg 64%
    11:00 +31°C° 0.4 mm 1 mps 731 mmHg 59%
    12:00 +33°C° 0.4 mm 1 mps 730 mmHg 54%
    13:00 +34°C° 0.4 mm 1 mps 729 mmHg 49%
    14:00 +34°C° 0.1 mm 1 mps 729 mmHg 47%
    15:00 +34°C° 0.1 mm 1 mps 728 mmHg 45%
    16:00 +34°C° 0.1 mm 1 mps 728 mmHg 42%
    17:00 +32°C° 0 mm 1 mps 728 mmHg 48%
    18:00 +28°C° 0 mm 0 mps 728 mmHg 54%
    19:00 +26°C° 0 mm 0 mps 728 mmHg 60%
    20:00 +25°C° 0 mm 0 mps 729 mmHg 62%
    21:00 +25°C° 0 mm 0 mps 729 mmHg 64%
    22:00 +24°C° 0 mm 0 mps 729 mmHg 66%
    23:00 +26°C° 0 mm 1 mps 729 mmHg 69%

    24 January, Wednesday

    Time Temperature Precipitation Wind Pressure Humidity
    00:00 +25°C° 0 mm 1 mps 729 mmHg 71%
    01:00 +25°C° 0 mm 1 mps 728 mmHg 74%
    02:00 +24°C° 0 mm 1 mps 729 mmHg 76%
    03:00 +24°C° 0 mm 1 mps 729 mmHg 79%
    04:00 +24°C° 0 mm 1 mps 729 mmHg 81%
    05:00 +24°C° 0 mm 1 mps 729 mmHg 80%
    06:00 +25°C° 0 mm 1 mps 730 mmHg 80%
    07:00 +25°C° 0 mm 1 mps 730 mmHg 79%
    08:00 +28°C° 0 mm 2 mps 730 mmHg 69%
    09:00 +31°C° 0 mm 2 mps 731 mmHg 60%
    10:00 +34°C° 0 mm 2 mps 731 mmHg 50%
    11:00 +35°C° 0 mm 2 mps 730 mmHg 47%
    12:00 +35°C° 0 mm 2 mps 729 mmHg 44%
    13:00 +35°C° 0 mm 1 mps 728 mmHg 40%
    14:00 +35°C° 0 mm 1 mps 728 mmHg 42%
    15:00 +34°C° 0 mm 1 mps 728 mmHg 45%
    16:00 +33°C° 0 mm 1 mps 727 mmHg 47%
    17:00 +32°C° 0 mm 1 mps 728 mmHg 52%
    18:00 +30°C° 0 mm 1 mps 728 mmHg 58%
    19:00 +29°C° 0 mm 1 mps 728 mmHg 63%
    20:00 +28°C° 0 mm 1 mps 728 mmHg 65%
    21:00 +27°C° 0 mm 1 mps 729 mmHg 67%
    22:00 +27°C° 0 mm 1 mps 729 mmHg 69%
    23:00 +26°C° 0.4 mm 1 mps 729 mmHg 73%
    Show more